Aeroporto :
LOGIN :

Iscrizione | Disclaimer

   EN    FR    IT 

 










Sommario :    VFR   VFR Marginale   IFR   IFR Intensivo   IFR Molto Intensivo
Visibilità : 
Base nubi : 
>= 8 km
>= 3000ft
5 / 8 km
1000 / 3000 ft
1500m / 5 km
500 / 1000 ft
800 / 1500m
200 / 500 ft
< 800m
< 200 ft
Simboli :   Temporali  Nebbia  Neve Forte  Precipitazioni Forti  Vento > 20 kt
SIGMETs :   Varie  Temporali  Ghiacco  Turbolenza  Onda orograficha  Ceneri Vulcaniche






- Altitudine del aeroporto : 794 ft


LKCV - Čáslav Air Base

ULTIMO METAR :
  • 240300Z 13004KT 9000 NSC M02/M02 Q1030 NOSIG RMK BLU BLU

METARs OBSOLETI :
  • 240230Z 16003KT CAVOK M01/M02 Q1030 NOSIG RMK BLU BLU
  • 240200Z 14004KT CAVOK M01/M02 Q1030 NOSIG RMK BLU BLU
  • 240130Z 14005KT CAVOK M01/M02 Q1030 NOSIG
  • 240100Z 15004KT CAVOK M01/M02 Q1031 NOSIG RMK BLU BLU
  • 240030Z 15002KT CAVOK M01/M02 Q1031 NOSIG RMK BLU BLU

TAF TAF LKCV
Valido dal 24 a 00 ore il 25 a 00 ore UTC


232300Z 2400/2500 15005KT CAVOK
BECMG 2400/2402 3000 MIFG BR SCT012
TEMPO 2402/2409 0500 FZFG VV001
BECMG 2409/2411 14004KT CAVOK
BECMG 2417/2419 16004KT 3000 BR BKN010



MetMap, La meteo Aeronautica in un colpo d'occhio ! - Copyright ORBIFLY Dicembre 2007 - Disclaimer

ORBIFLY MET'MAP TEAM :

Programmazione e sviluppo : Alexandra Zaïnal
Concezione : Baudouin d'Aumeries
Aiuto per la programmazione : Marc-Olivier Méhu
Supporto tecnico e logistico : Manuel Goepfert
Aiuto per la traduzione : Arnaldo La Scala

Contatto : metmap@orbifly.com




FONTI E CREDITI :

   NOAA